PRAETORIAN SDA_612

Last updated on Sun Jun 21 2026 00:03:46 GMT+0000 (Coordinated Universal Time)

1 65575U 25203L 26171.29704375 .00000145 00000+0 11763-3 0 9994 2 65575 81.3031 7.6333 0009209 178.0136 182.1060 13.85039458 39145
UTC large
Height (km)
Speed (km/s)
/
Latitude / Longitude
Inclination (degrees)
Orbital Period (minutes)
Azimuth
Elevation
Range (km)
Doppler Factor

Next 0 passes for location: London (51.5072 / 0.1276)

No passes found over London.
PRAETORIAN SDA_612